Stations météo

réclame
Mon MeteoGroup
Visby Flygplats, Suède (2590): Température de l'air & dewpoint: 11.02.2019 13:00:00 - 17.02.2019 13:00:00 (CET)Visby Flygplats, Suède (2590): Vitesse du vent & gusts: 11.02.2019 13:00:00 - 17.02.2019 13:00:00 (CET)Visby Flygplats, Suède (2590): Direction du vent: 11.02.2019 13:00:00 - 17.02.2019 13:00:00 (CET)Visby Flygplats, Suède (2590): reduced air pressure: 11.02.2019 13:00:00 - 17.02.2019 13:00:00 (CET)Visby Flygplats, Suède (2590): visibility: 11.02.2019 13:00:00 - 17.02.2019 13:00:00 (CET)Visby Flygplats, Suède (2590): Quantités de précipitations: 11.02.2019 13:00:00 - 17.02.2019 13:00:00 (CET)
Date & Time tt [°C] td [°C] ff [km/h] ff [knt] fx [km/h] fx [knt] dd ppp [hPa] vv [km] rr [mm]
17.02.2019 13:00:00 5,1 1,3 4 2 7 4 - 1020,4 10 -
17.02.2019 12:00:00 4,9 0,5 5 3 7 4 - 1020,1 10 0,0
17.02.2019 11:00:00 4,3 0,3 5 3 11 6 NE 1020,0 10 0,0
17.02.2019 10:00:00 3,8 1,0 4 2 7 4 ENE 1019,8 10 0,0
17.02.2019 09:00:00 3,2 2,8 4 2 7 4 N 1019,4 10 0,0
17.02.2019 08:00:00 1,6 1,2 0 0 11 6 N 1018,5 2,8 0,0
17.02.2019 07:00:00 1,9 1,2 9 5 18 10 NNW 1018,1 8 0,0
17.02.2019 06:00:00 3,7 2,8 11 6 18 10 NW 1017,5 10 0,0
17.02.2019 05:00:00 4,3 3,3 13 7 18 10 NW 1017,2 10 0,0
17.02.2019 04:00:00 4,4 3,2 13 7 18 10 NW 1016,7 10 0,0
17.02.2019 03:00:00 4,6 3,3 13 7 22 12 NW 1016,3 10 0,0
17.02.2019 02:00:00 4,7 3,4 11 6 18 10 NW 1015,8 10 0,0
17.02.2019 01:00:00 4,8 3,3 11 6 18 10 WNW 1015,1 10 0,0
17.02.2019 00:00:00 5,1 3,3 15 8 25 14 W 1014,4 10 0,0
16.02.2019 23:00:00 4,7 2,9 16 9 25 14 W 1014,1 10 0,0
16.02.2019 22:00:00 5,3 3,0 18 10 29 16 W 1013,6 10 0,0
16.02.2019 21:00:00 5,5 2,7 21 11 36 19 W 1013,0 10 0,0
16.02.2019 20:00:00 6,5 2,0 29 16 43 23 WSW 1012,5 10 0,0
16.02.2019 19:00:00 8,1 1,3 31 17 43 23 WSW 1011,7 10 0,0
16.02.2019 18:00:00 7,9 1,3 31 17 43 23 WSW 1012,0 10 0,0
16.02.2019 17:00:00 9,2 0,4 29 16 40 21 SW 1012,1 10 0,0
16.02.2019 16:00:00 9,4 0,3 31 17 43 23 SW 1012,1 10 0,0
16.02.2019 15:00:00 10,0 0,3 31 17 50 27 SW 1012,5 10 0,0
16.02.2019 14:00:00 10,2 0,0 37 20 50 27 SW 1013,2 10 0,0
16.02.2019 13:00:00 10,0 0,3 29 16 47 25 SW 1013,8 10 0,0
16.02.2019 12:00:00 10,6 -1,2 35 19 50 27 SW 1014,6 10 0,0
16.02.2019 11:00:00 9,4 -0,5 31 17 43 23 SW 1015,4 10 0,0
16.02.2019 10:00:00 7,9 -0,1 28 15 40 21 SW 1016,3 10 0,0
16.02.2019 09:00:00 6,1 0,2 24 13 32 18 SSW 1017,1 10 0,0
16.02.2019 08:00:00 3,8 0,0 22 12 29 16 SSW 1017,7 10 0,0
16.02.2019 07:00:00 3,4 -1,0 21 11 29 16 SSW 1018,2 10 0,0
16.02.2019 06:00:00 3,6 -1,8 24 13 50 27 SSW 1018,9 10 0,0
16.02.2019 05:00:00 4,6 -1,8 22 12 43 23 SW 1019,2 10 0,0
16.02.2019 04:00:00 4,8 -1,2 22 12 43 23 SW 1019,9 10 0,0
16.02.2019 03:00:00 3,0 -0,6 21 11 32 18 SSW 1020,8 10 0,0
16.02.2019 02:00:00 5,0 -1,0 22 12 32 18 SW 1021,6 10 0,0
16.02.2019 01:00:00 5,1 -0,7 24 13 40 21 SW 1022,2 10 0,0
16.02.2019 00:00:00 5,3 -0,3 28 15 36 19 SW 1022,3 10 0,0
15.02.2019 23:00:00 5,9 -0,2 22 12 36 19 SW 1022,5 10 0,0
15.02.2019 22:00:00 6,3 0,0 26 14 36 19 WSW 1022,9 10 0,0
15.02.2019 21:00:00 6,5 0,2 26 14 36 19 WSW 1023,3 10 0,0
15.02.2019 20:00:00 6,6 0,5 26 14 36 19 WSW 1023,3 10 0,0
15.02.2019 19:00:00 6,2 1,9 26 14 32 18 WSW 1023,6 10 0,0
15.02.2019 18:00:00 6,6 2,9 21 11 29 16 WSW 1023,9 10 0,0
15.02.2019 17:00:00 6,5 3,6 24 13 36 19 WSW 1024,0 10 0,0
15.02.2019 16:00:00 7,0 4,3 26 14 36 19 WSW 1024,4 10 0,0
15.02.2019 15:00:00 7,2 4,7 28 15 40 21 WSW 1025,0 10 0,0
15.02.2019 14:00:00 7,5 4,8 26 14 40 21 WSW 1025,2 10 0,0
15.02.2019 13:00:00 6,9 4,7 26 14 36 19 WSW 1025,8 10 0,0
15.02.2019 12:00:00 6,4 4,6 24 13 32 18 WSW 1025,8 10 0,0
15.02.2019 11:00:00 6,4 4,7 21 11 29 16 WSW 1026,0 10 0,0
15.02.2019 10:00:00 5,9 4,5 22 12 29 16 WSW 1025,9 10 0,0
15.02.2019 09:00:00 4,7 3,7 22 12 32 18 WSW 1025,6 10 0,0
15.02.2019 08:00:00 4,7 3,7 24 13 32 18 WSW 1025,6 10 0,0
15.02.2019 07:00:00 4,5 3,5 22 12 29 16 WSW 1025,2 10 0,0
15.02.2019 06:00:00 4,2 3,2 21 11 29 16 WSW 1024,9 10 0,0
15.02.2019 05:00:00 3,9 2,9 21 11 29 16 WSW 1024,7 10 0,0
15.02.2019 04:00:00 3,8 2,8 22 12 25 14 WSW 1024,5 10 0,0
15.02.2019 03:00:00 3,7 2,5 18 10 22 12 WSW 1024,7 10 0,0
15.02.2019 02:00:00 3,7 2,5 18 10 25 14 WSW 1024,6 10 0,0
15.02.2019 01:00:00 3,9 2,6 18 10 29 16 WSW 1024,6 10 0,0
15.02.2019 00:00:00 4,3 2,8 22 12 32 18 WSW 1024,6 10 0,0
14.02.2019 23:00:00 4,6 2,9 24 13 36 19 WSW 1024,3 10 0,0
14.02.2019 22:00:00 4,7 3,0 26 14 40 21 WSW 1023,7 10 0,0
14.02.2019 21:00:00 5,4 3,6 28 15 36 19 WSW 1023,5 10 0,0
14.02.2019 20:00:00 5,5 3,7 28 15 40 21 WSW 1023,7 10 0,0
14.02.2019 19:00:00 5,5 3,7 26 14 40 21 WSW 1023,7 10 0,0
14.02.2019 18:00:00 5,5 3,8 26 14 36 19 WSW 1024,6 10 0,0
14.02.2019 17:00:00 5,8 4,0 29 16 40 21 WSW 1024,2 10 0,0
14.02.2019 16:00:00 5,9 4,1 28 15 40 21 WSW 1024,4 10 0,0
14.02.2019 15:00:00 5,9 4,1 29 16 40 21 WSW 1024,7 10 0,0
14.02.2019 14:00:00 6,4 4,6 26 14 36 19 SW 1024,8 10 0,0
14.02.2019 13:00:00 5,3 4,1 22 12 32 18 WSW 1025,6 10 0,0
14.02.2019 12:00:00 5,0 4,1 22 12 32 18 WSW 1026,3 10 0,0
14.02.2019 11:00:00 4,0 3,4 24 13 32 18 WSW 1026,7 10 0,0
14.02.2019 10:00:00 3,7 3,1 21 11 32 18 WSW 1026,1 10 0,0
14.02.2019 09:00:00 3,5 2,9 16 9 25 14 W 1026,1 10 0,0
14.02.2019 08:00:00 2,7 1,7 21 11 25 14 WSW 1025,8 10 0,0
14.02.2019 07:00:00 2,4 0,6 18 10 25 14 WSW 1025,3 10 0,0
14.02.2019 06:00:00 2,7 -0,1 16 9 25 14 W 1025,3 10 0,0
14.02.2019 05:00:00 2,8 0,0 16 9 25 14 W 1025,3 10 0,0
14.02.2019 04:00:00 2,5 -0,3 13 7 22 12 WSW 1025,1 10 0,0
14.02.2019 03:00:00 2,8 0,2 15 8 22 12 WSW 1024,1 10 0,0
14.02.2019 02:00:00 3,7 0,0 15 8 18 10 W 1023,5 10 0,0
14.02.2019 01:00:00 2,6 0,2 9 5 18 10 WSW 1023,3 10 0,0
14.02.2019 00:00:00 3,2 0,4 13 7 32 18 W 1022,7 10 0,0
13.02.2019 23:00:00 4,2 0,5 18 10 29 16 W 1021,8 10 0,0
13.02.2019 22:00:00 4,4 0,6 22 12 32 18 W 1021,2 10 0,0
13.02.2019 21:00:00 4,3 1,0 21 11 32 18 W 1020,0 10 0,0
13.02.2019 20:00:00 5,1 1,0 16 9 29 16 W 1019,4 10 0,0
13.02.2019 19:00:00 4,8 1,1 15 8 25 14 W 1019,0 10 0,0
13.02.2019 18:00:00 3,8 0,8 11 6 22 12 W 1018,7 10 0,0
13.02.2019 17:00:00 5,4 1,3 16 9 25 14 W 1018,0 10 0,0
13.02.2019 16:00:00 4,6 1,4 8 4 29 16 W 1017,5 10 0,0
13.02.2019 15:00:00 5,8 1,9 16 9 29 16 WNW 1016,6 10 0,0
13.02.2019 14:00:00 5,4 2,1 15 8 32 18 WNW 1015,5 10 0,0
13.02.2019 13:00:00 5,7 2,0 24 13 32 18 NW 1014,5 10 0,0
13.02.2019 12:00:00 5,7 2,0 24 13 40 21 NW 1013,5 10 0,0
13.02.2019 11:00:00 5,6 2,2 22 12 36 19 WNW 1012,4 10 0,0
13.02.2019 10:00:00 5,6 2,2 26 14 43 23 WNW 1011,3 10 0,0
13.02.2019 09:00:00 5,1 2,3 28 15 40 21 W 1010,0 10 0,0
13.02.2019 08:00:00 4,1 2,8 24 13 40 21 WSW 1009,2 10 0,0
13.02.2019 07:00:00 3,3 2,4 28 15 43 23 SW 1008,8 10 0,0
13.02.2019 06:00:00 3,1 2,2 31 17 50 27 SW 1009,0 10 0,0
13.02.2019 05:00:00 2,5 1,6 37 20 54 29 SW 1009,9 10 0,0
13.02.2019 04:00:00 2,0 1,1 35 19 50 27 SW 1011,6 10 0,0
13.02.2019 03:00:00 1,4 1,0 34 18 50 27 SW 1013,4 10 0,3
13.02.2019 02:00:00 0,5 0,1 29 16 40 21 SW 1014,7 3,7 0,3
13.02.2019 01:00:00 0,4 -0,2 26 14 40 21 SW 1016,8 4,2 0,2
13.02.2019 00:00:00 1,8 -1,3 24 13 40 21 WSW 1018,5 10 0,0
12.02.2019 23:00:00 1,8 -2,9 24 13 32 18 WSW 1019,1 10 0,0
12.02.2019 22:00:00 1,7 -3,8 26 14 32 18 W 1019,7 10 0,0
12.02.2019 21:00:00 1,8 -4,4 22 12 40 21 W 1020,1 10 0,0
12.02.2019 20:00:00 1,8 -4,5 29 16 40 21 W 1020,1 10 0,0
12.02.2019 19:00:00 1,9 -4,2 26 14 43 23 WNW 1020,1 10 0,0
12.02.2019 18:00:00 1,7 -4,8 28 15 43 23 WNW 1020,0 10 0,0
12.02.2019 17:00:00 1,4 -4,5 28 15 40 21 WNW 1019,8 10 0,0
12.02.2019 16:00:00 1,3 -4,4 26 14 40 21 WNW 1019,3 10 0,0
12.02.2019 15:00:00 1,2 -4,2 28 15 43 23 WNW 1018,9 10 0,0
12.02.2019 14:00:00 1,3 -3,8 26 14 43 23 NW 1018,8 10 0,0
12.02.2019 13:00:00 1,1 -4,0 29 16 40 21 NW 1018,0 10 0,0
12.02.2019 12:00:00 0,9 -3,4 29 16 40 21 NW 1017,6 10 0,0
12.02.2019 11:00:00 0,8 -2,9 29 16 43 23 NW 1017,1 10 0,0
12.02.2019 10:00:00 0,9 -3,0 31 17 43 23 NNW 1016,3 10 0,0
12.02.2019 09:00:00 0,7 -3,4 29 16 47 25 NNW 1015,4 10 0,0
12.02.2019 08:00:00 0,4 -3,9 35 19 47 25 NNW 1014,5 10 0,0
12.02.2019 07:00:00 0,0 -3,9 35 19 54 29 NNW 1013,2 10 0,0
12.02.2019 06:00:00 0,2 -3,4 34 18 54 29 NNW 1012,2 10 0,0
12.02.2019 05:00:00 0,3 -3,1 37 20 47 25 NNW 1011,3 10 0,0
12.02.2019 04:00:00 0,3 -2,9 31 17 47 25 NNW 1010,0 10 0,0
12.02.2019 03:00:00 0,1 -3,1 34 18 50 27 NNW 1009,0 10 0,0
12.02.2019 02:00:00 0,1 -3,3 39 21 50 27 NNW 1007,8 10 0,0
12.02.2019 01:00:00 0,3 -3,3 31 17 47 25 NNW 1007,0 10 0,0
12.02.2019 00:00:00 0,3 -2,9 29 16 50 27 NNW 1006,2 10 0,0
11.02.2019 23:00:00 0,5 -2,9 34 18 47 25 NNW 1005,1 10 0,0
11.02.2019 22:00:00 0,6 -2,8 37 20 50 27 NNW 1004,3 10 0,0
11.02.2019 21:00:00 1,0 -2,8 37 20 58 31 NNW 1003,6 10 0,0
11.02.2019 20:00:00 1,5 -2,3 41 22 58 31 NNW 1002,5 10 0,0
11.02.2019 19:00:00 1,6 -1,6 39 21 58 31 NNW 1001,7 10 0,0
11.02.2019 18:00:00 1,9 -1,7 37 20 54 29 NNW 1000,9 10 0,0
11.02.2019 17:00:00 1,7 -1,0 37 20 50 27 NNW 999,8 10 0,0
11.02.2019 16:00:00 1,6 -0,3 42 23 54 29 NNW 998,5 10 0,0
11.02.2019 15:00:00 1,6 0,4 39 21 54 29 N 996,9 10 0,0
11.02.2019 14:00:00 1,4 0,8 39 21 54 29 NNW 995,5 7 0,5
11.02.2019 13:00:00 1,3 1,0 29 16 50 27 N 994,2 9 0,7

tt = Température de l'air
td = dewpoint
ff = Vitesse du vent
fx = gusts
dd = Direction du vent
ppp = reduced air pressure
vv = visibility
rr = Quantités de précipitations

stations d'obs. à proximité